Wichita, KS

8:32 AM CDT on April 24, 2017 (GMT -0500)
Wichita Eisenhower National Airport

Weather History for KICT - December, 2013

Change the Weather History Date:

Sunday, December 8, 2013

  Actual Average Record
Temperature  
Mean Temperature 21 °F 35 °F  
Max Temperature 24 °F 45 °F 69 °F (1918)
Min Temperature 18 °F 25 °F -5 °F (1917)
Degree Days  
Heating Degree Days 44 30  
Month to date heating degree days 282 228  
Since 1 July heating degree days 1167 1104  
Cooling Degree Days 0 0  
Month to date cooling degree days 0 0  
Year to date cooling degree days 1778 1686  
Moisture  
Dew Point 16 °F    
Average Humidity 74    
Maximum Humidity 92    
Minimum Humidity 56    
Precipitation  
Precipitation T in 0.04 in 0.51 in (1961)
Month to date precipitation T 0.35  
Year to date precipitation 39.85 31.79  
Snow  
Snow T in 0.20 in 2.50 in (1961)
Month to date snowfall T 1.0  
Since 1 July snowfall T 2.4  
Snow Depth 0.00 in    
Sea Level Pressure  
Sea Level Pressure 30.11 in    
Wind  
Wind Speed 10 mph (SSE)    
Max Wind Speed 17 mph    
Max Gust Speed 23 mph    
Visibility 6 miles    
Events Snow    
T = Trace of Precipitation, MM = Missing Value Source: NWS Daily Summary

Daily Weather History Graph

Daily Weather History Graph

Search for Another Location

Airport or City:

Trip Planner

Search our weather history database for the weather conditions in past years. The results will help you decide how hot, cold, wet, or windy it might be!

Date:

Astronomy

Dec. 08, 2013 Rise Set
Actual Time 7:32 AM CST 5:11 PM CST
Civil Twilight 7:03 AM CST 5:40 PM CST
Nautical Twilight 6:30 AM CST 6:12 PM CST
Astronomical Twilight 5:58 AM CST 6:44 PM CST
Moon 11:58 AM CST (12/8) 11:55 PM CST (12/8)
Length of Visible Light 10h 36m
Length of Day
9h 38m
Waxing Crescent, 40% of the Moon is Illuminated
Dec 8
Waxing Crescent
Dec 9
First Quarter
Dec 17
Full
Dec 25
Last Quarter
Jan 1
New

Hourly Weather History & Observations

Time (CST) Temp. Windchill Dew Point Humidity Pressure Visibility Wind Dir Wind Speed Gust Speed Precip Events Conditions
12:53 AM 19.9 °F 8.6 °F 7.0 °F 57% 30.27 in 10.0 mi SE 10.4 mph - N/A   Overcast
1:53 AM 21.0 °F 9.3 °F 8.1 °F 57% 30.22 in 10.0 mi SE 11.5 mph - N/A   Overcast
2:14 AM 19.4 °F 7.2 °F 8.6 °F 63% 30.16 in 10.0 mi SE 11.5 mph - N/A   Overcast
2:49 AM 21.2 °F 8.9 °F 8.6 °F 58% 30.14 in 10.0 mi ESE 12.7 mph - 0.00 in Snow Light Snow
2:53 AM 21.0 °F 9.3 °F 9.0 °F 60% 30.19 in 10.0 mi SE 11.5 mph - 0.00 in Snow Light Snow
3:24 AM 19.4 °F 8.6 °F 10.4 °F 68% 30.13 in 9.0 mi SE 9.2 mph - 0.00 in Snow Light Snow
3:53 AM 19.9 °F 7.9 °F 12.0 °F 71% 30.17 in 7.0 mi SE 11.5 mph - 0.00 in Snow Light Snow
4:27 AM 19.4 °F 7.9 °F 15.8 °F 86% 30.09 in 5.0 mi SSE 10.4 mph - 0.00 in   Light Freezing Drizzle
4:53 AM 19.0 °F 6.8 °F 15.1 °F 85% 30.14 in 5.0 mi SE 11.5 mph - 0.00 in   Light Freezing Drizzle
5:11 AM 19.4 °F 7.9 °F 15.8 °F 86% 30.08 in 5.0 mi SE 10.4 mph - 0.00 in   Light Freezing Drizzle
5:53 AM 19.0 °F 7.5 °F 16.0 °F 88% 30.13 in 4.0 mi SE 10.4 mph - 0.00 in   Light Freezing Drizzle
6:53 AM 19.0 °F 8.2 °F 16.0 °F 88% 30.12 in 4.0 mi SE 9.2 mph - 0.00 in   Light Freezing Drizzle
7:19 AM 19.4 °F 7.2 °F 15.8 °F 86% 30.05 in 5.0 mi SE 11.5 mph - 0.00 in   Light Freezing Drizzle
7:31 AM 19.4 °F 8.6 °F 17.6 °F 93% 30.05 in 5.0 mi SSE 9.2 mph - 0.00 in   Light Freezing Drizzle
7:53 AM 19.0 °F 7.5 °F 17.1 °F 92% 30.10 in 4.0 mi SSE 10.4 mph - 0.00 in   Light Freezing Drizzle
8:08 AM 19.4 °F 7.2 °F 17.6 °F 93% 30.04 in 4.0 mi SSE 11.5 mph - 0.00 in   Light Freezing Drizzle
8:33 AM 19.4 °F 8.6 °F 17.6 °F 93% 30.05 in 3.0 mi SSE 9.2 mph - 0.00 in   Light Freezing Drizzle
8:53 AM 19.9 °F 7.9 °F 18.0 °F 92% 30.10 in 3.0 mi South 11.5 mph - 0.00 in   Light Freezing Drizzle
9:53 AM 19.9 °F 7.9 °F 18.0 °F 92% 30.09 in 3.0 mi SSE 11.5 mph - 0.00 in   Light Freezing Drizzle
10:53 AM 21.0 °F 9.3 °F 19.0 °F 92% 30.07 in 3.0 mi South 11.5 mph - 0.00 in   Light Freezing Drizzle
11:40 AM 21.2 °F 10.1 °F 19.4 °F 93% 29.99 in 5.0 mi South 10.4 mph - 0.00 in Snow Light Snow
11:53 AM 21.9 °F 11.0 °F 19.0 °F 89% 30.05 in 4.0 mi South 10.4 mph - 0.00 in Snow Light Snow
12:27 PM 21.2 °F 10.1 °F 19.4 °F 93% 29.97 in 5.0 mi SSW 10.4 mph - 0.00 in Snow Light Snow
12:53 PM 23.0 °F 13.1 °F 19.9 °F 88% 30.01 in 6.0 mi SSW 9.2 mph - 0.00 in   Overcast
1:53 PM 23.0 °F 12.4 °F 19.9 °F 88% 29.98 in 6.0 mi SSW 10.4 mph - N/A   Overcast
2:53 PM 23.0 °F 13.9 °F 19.9 °F 88% 30.01 in 5.0 mi SW 8.1 mph - N/A   Overcast
3:53 PM 24.1 °F 16.0 °F 19.9 °F 84% 30.03 in 6.0 mi WNW 6.9 mph - N/A   Overcast
4:53 PM 24.1 °F 17.0 °F 21.0 °F 88% 30.06 in 5.0 mi NW 5.8 mph - N/A   Overcast
5:53 PM 23.0 °F 14.7 °F 19.9 °F 88% 30.10 in 6.0 mi NW 6.9 mph - N/A   Overcast
6:53 PM 24.1 °F 14.4 °F 19.9 °F 84% 30.13 in 7.0 mi NW 9.2 mph - N/A   Overcast
7:39 PM 24.8 °F 16.1 °F 19.4 °F 80% 30.10 in 8.0 mi NNW 8.1 mph - N/A   Overcast
7:53 PM 24.1 °F 16.0 °F 19.9 °F 84% 30.17 in 9.0 mi NNW 6.9 mph - N/A   Overcast
8:28 PM 23.0 °F 14.7 °F 19.4 °F 86% 30.12 in 9.0 mi NW 6.9 mph - N/A   Overcast
8:53 PM 23.0 °F 13.9 °F 18.0 °F 81% 30.19 in 10.0 mi NNW 8.1 mph - N/A   Overcast
9:53 PM 23.0 °F 13.1 °F 18.0 °F 81% 30.23 in 10.0 mi NW 9.2 mph - N/A   Overcast
10:53 PM 21.0 °F 7.6 °F 14.0 °F 74% 30.26 in 9.0 mi North 15.0 mph - 0.00 in Snow Light Snow
11:53 PM 18.0 °F 6.1 °F 12.0 °F 78% 30.25 in 10.0 mi North 10.4 mph - 0.00 in   Scattered Clouds